カタログに戻る

COSMOS 700

運用中ナビゲーションPO
NORAD 7593·PAYLOAD·🇷🇺 Russia

打ち上げ Dec 26, 1974 から Plesetsk Cosmodrome

Loading…

次のパス (今後24時間)

TLE

最新Source: Space-Track

元期: Sep 14, 2026, 04:10 UTC

1 07593U 74105A   26257.17415720  .00000061  00000-0  46401-4 0  9996
2 07593  82.9558 341.9317 0025582  54.7980 328.2714 13.76993202597534

AllMySatでCOSMOS 700をリアルタイム追跡

Download on the App Store